Regional Weather Roundup
Issued by NWS Little Rock, AR

Home | Current Version | Previous Version | Graphics & Text | Print | Product List | Glossary On
Versions: 1 2 3 4 5 6 7 8 9 10 11 12 13 14 15 16 17 18 19 20 21 22 23 24 25 26 27 28 29 30 31 32 33 34 35 36 37 38 39 40 41 42 43 44 45 46 47 48
000
ASUS44 KLZK 030705
RWRLZK

WEATHER ROUNDUP FOR ARKANSAS
NATIONAL WEATHER SERVICE LITTLE ROCK AR
200 AM CDT FRI JUL 03 2015

NOTE: "FAIR" INDICATES FEW OR NO CLOUDS BELOW 12,000 FEET WITH NO
SIGNIFICANT WEATHER AND/OR OBSTRUCTIONS TO VISIBILITY.

ARZ001-003-010-029-030800-
NORTHWEST ARKANSAS

CITY           SKY/WX    TMP DP  RH WIND       PRES   REMARKS
FAYETTEVILLE   PTCLDY    68  68 100 S6        29.92F
FORT SMITH     CLOUDY    75  71  87 CALM      29.90F
HARRISON       MOCLDY    69  66  90 CALM      29.92F
BENTONVILLE    PTCLDY   N/A N/A N/A W3        29.93S
ROGERS         PTCLDY    69  66  90 W6        29.94S
SILOAM SPGS    PTCLDY    66  63  88 S6          N/A
HIGHFILL       PTCLDY    67  67 100 SW5       29.92F
$$

ARZ004-005-016-030800-
NORTH CENTRAL ARKANSAS

CITY           SKY/WX    TMP DP  RH WIND       PRES   REMARKS
BATESVILLE     CLOUDY    72  70  94 NW3       29.87F
FLIPPIN        MOCLDY    72  66  83 SW3       29.87F
MTN HOME       MOCLDY    70  68  93 SW3       29.88F
$$

ARZ040-041-030800-
WEST CENTRAL ARKANSAS

CITY           SKY/WX    TMP DP  RH WIND       PRES   REMARKS
MENA           CLOUDY    77  73  88 CALM      29.96S
MOUNT IDA      CLOUDY    77  73  87 CALM      29.92S
$$

ARZ009-017-025-026-028-030800-
NORTHEAST ARKANSAS

CITY           SKY/WX    TMP DP  RH WIND       PRES   REMARKS
JONESBORO      LGT RAIN  71  69  93 W5        29.85F
NEWPORT        CLOUDY    72  72 100 S6        29.88F
WALNUT RIDGE   CLOUDY    72  68  88 NW5       29.86F
BLYTHEVILLE    CLOUDY    72  72 100 W3        29.85S
$$

ARZ022-023-033-042-044-030800-
CENTRAL ARKANSAS

CITY           SKY/WX    TMP DP  RH WIND       PRES   REMARKS
LITTLE ROCK    LGT RAIN  77  72  84 SW3       29.90F
N LITTLE ROCK    N/A     74  74  99 SW5       29.90F
JACKSONVILLE   CLOUDY    74  73  95 SW12      29.88F
SEARCY         CLOUDY    76  71  85 CALM      29.89F
HOT SPRINGS    LGT RAIN  77  74  90 CALM      29.93F
RUSSELLVILLE   CLOUDY    73  71  93 CALM      29.90F
CLINTON        CLOUDY    72  72 100 CALM      29.91R
$$

ARZ036-030800-
EAST ARKANSAS

CITY           SKY/WX    TMP DP  RH WIND       PRES   REMARKS
WEST MEMPHIS   CLOUDY    71  71 100 S5        29.86F
$$

ARZ050-053-066-070-073-030800-
SOUTHWEST ARKANSAS

CITY           SKY/WX    TMP DP  RH WIND       PRES   REMARKS
ARKADELPHIA    FAIR      79  75  87 SW7       29.92F
CAMDEN         MOCLDY    77  72  83 MISG      29.92F
TEXARKANA      CLOUDY    78  73  84 S10       29.95S
EL DORADO      CLOUDY    77  72  84 S6        29.95F
DE QUEEN       CLOUDY    76  74  93 CALM      29.91F
$$

ARZ056-057-069-030800-
SOUTHEAST ARKANSAS

CITY           SKY/WX    TMP DP  RH WIND       PRES   REMARKS
PINE BLUFF     CLOUDY    80  72  76 SW9       29.90F
STUTTGART      CLOUDY    79  72  78 SW8       29.88F
MONTICELLO     CLOUDY    80  74  81 SW10      29.93F HX  85

$$




USA.gov is the U.S. government's official web portal to all federal, state and local government web resources and services.